Tracking 30995 objects as of 7-Jul-2025
HD Live streaming from Space Station
objects crossing your sky now

STARLINK-32002

Track STARLINK-32002 now!
10-day predictions
STARLINK-32002 is classified as:


NORAD ID: 60200
Int'l Code: 2024-124T
Perigee: 481.6 km
Apogee: 483.1 km
Inclination: 53.2 °
Period: 94.1 minutes
Semi major axis: 6853 km
RCS: Unknown
Launch date: July 3, 2024
Source: United States (US)
Launch site: AIR FORCE EASTERN TEST RANGE (AFETR)
Your satellite tracking list
Your tracking list is empty




NASA's NSSDC Master Catalog

Two Line Element Set (TLE):
1 60200U 24124T   25187.83616578  .00001614  00000-0  66613-4 0  9996
2 60200  53.1616  24.5173 0001117  90.9393 269.1735 15.30201346 57793
Source of the keplerian elements: AFSPC